North Adams, MA

5:05 PM EDT on May 29, 2017 (GMT -0400)
Harriman And West

Weather History for KAQW - December, 2012

Change the Weather History Date:

Thursday, December 27, 2012

  Actual Average Record
Temperature  
Mean Temperature 28 °F -  
Max Temperature 33 °F 33 °F 53 °F (2015)
Min Temperature 24 °F 18 °F 5 °F (2004)
Degree Days  
Heating Degree Days 36    
Moisture  
Dew Point 24 °F    
Average Humidity 79    
Maximum Humidity 87    
Minimum Humidity 70    
Precipitation  
Precipitation 0.40 in - - ()
Sea Level Pressure  
Sea Level Pressure 29.56 in    
Wind  
Wind Speed 13 mph (SSE)    
Max Wind Speed 25 mph    
Max Gust Speed 37 mph    
Visibility 2 miles    
Events Fog , Snow    
Averages and records for this station are not official NWS values.
T = Trace of Precipitation, MM = Missing Value Source: NWS Daily Summary

Daily Weather History Graph

Daily Weather History Graph

Search for Another Location

Airport or City:

Trip Planner

Search our weather history database for the weather conditions in past years. The results will help you decide how hot, cold, wet, or windy it might be!

Date:

Astronomy

Dec. 27, 2012 Rise Set
Actual Time 7:22 AM EST 4:25 PM EST
Civil Twilight 6:50 AM EST 4:58 PM EST
Nautical Twilight 6:14 AM EST 5:33 PM EST
Astronomical Twilight 5:40 AM EST 6:08 PM EST
Moon 4:07 PM EST (12/27) 6:30 AM EST (12/27)
Length of Visible Light 10h 08m
Length of Day
9h 03m
Full, 100% of the Moon is Illuminated
Dec 27
Full
Dec 28
Full
Jan 4
Last Quarter
Jan 11
New
Jan 18
First Quarter

Hourly Weather History & Observations

Time (EST) Temp. Windchill Dew Point Humidity Pressure Visibility Wind Dir Wind Speed Gust Speed Precip Events Conditions
12:18 AM 30.2 °F 18.1 °F 24.8 °F 80% 29.74 in 1.2 mi East 18.4 mph 35.7 mph 0.00 in Snow Light Snow
12:37 AM 30.2 °F 19.3 °F 24.8 °F 80% 29.72 in 1.5 mi East 15.0 mph 27.6 mph 0.00 in Snow Light Snow
12:52 AM 30.9 °F 19.4 °F 25.0 °F 79% 29.72 in 1.8 mi East 17.3 mph 33.4 mph 0.00 in Snow Light Snow
1:24 AM 32.0 °F 24.2 °F 24.8 °F 75% 29.67 in 2.5 mi East 9.2 mph 27.6 mph 0.00 in Snow Light Snow
1:52 AM 32.0 °F 23.6 °F 24.1 °F 73% 29.68 in 2.5 mi East 10.4 mph 20.7 mph 0.00 in Snow Light Snow
2:10 AM 30.2 °F 19.8 °F 24.8 °F 80% 29.65 in 1.8 mi East 13.8 mph 24.2 mph 0.01 in Snow Light Snow
2:52 AM 30.9 °F 20.2 °F 24.1 °F 76% 29.64 in 2.0 mi East 15.0 mph 28.8 mph 0.01 in Snow Light Snow
3:05 AM 30.2 °F 16.2 °F 24.8 °F 80% 29.59 in 1.8 mi East 25.3 mph 36.8 mph 0.00 in Snow Light Snow
3:47 AM 32.0 °F 21.6 °F 24.8 °F 75% 29.57 in 2.0 mi East 15.0 mph 29.9 mph 0.01 in Snow Light Snow
3:52 AM 32.0 °F 24.8 °F 24.1 °F 73% 29.59 in 1.5 mi East 8.1 mph 27.6 mph 0.01 in Snow Light Snow
3:59 AM 30.2 °F 21.3 °F 24.8 °F 80% 29.57 in 1.2 mi ESE 10.4 mph 20.7 mph 0.00 in Snow Light Snow
4:03 AM 32.0 °F 23.0 °F 24.8 °F 75% 29.56 in 2.0 mi SE 11.5 mph 23.0 mph 0.00 in Snow Light Snow
4:26 AM 32.0 °F 20.1 °F 24.8 °F 75% 29.55 in 1.5 mi ESE 19.6 mph 26.5 mph 0.01 in Snow Light Snow
4:49 AM 32.0 °F 23.0 °F 24.8 °F 75% 29.54 in 2.0 mi ESE 11.5 mph 20.7 mph 0.02 in Snow Light Snow
4:52 AM 32.0 °F 24.2 °F 25.0 °F 75% 29.57 in 2.0 mi East 9.2 mph 19.6 mph 0.02 in Snow Light Snow
5:23 AM 32.0 °F 22.1 °F 26.6 °F 80% 29.51 in 1.5 mi East 13.8 mph 21.9 mph 0.01 in Snow Light Snow
5:52 AM 32.0 °F 22.5 °F 25.0 °F 75% 29.54 in 2.5 mi East 12.7 mph 18.4 mph 0.01 in Snow Light Snow
5:59 AM 32.0 °F 21.6 °F 24.8 °F 75% 29.51 in 3.0 mi East 15.0 mph 24.2 mph 0.00 in Snow Light Snow
6:07 AM 32.0 °F 21.6 °F 24.8 °F 75% 29.50 in 2.0 mi East 15.0 mph 26.5 mph 0.00 in Snow Light Snow
6:20 AM 32.0 °F 23.0 °F 24.8 °F 75% 29.49 in 3.0 mi East 11.5 mph 25.3 mph 0.00 in Snow Light Snow
6:40 AM 32.0 °F 21.2 °F 24.8 °F 75% 29.49 in 2.5 mi ESE 16.1 mph 26.5 mph 0.00 in Snow Light Snow
6:47 AM 32.0 °F 20.5 °F 24.8 °F 75% 29.49 in 1.2 mi ESE 18.4 mph 26.5 mph 0.01 in Snow Light Snow
6:52 AM 30.9 °F 20.2 °F 26.1 °F 82% 29.52 in 0.8 mi ESE 15.0 mph 26.5 mph 0.01 in Snow Light Snow
7:08 AM 30.2 °F 19.8 °F 26.6 °F 86% 29.50 in 0.5 mi ESE 13.8 mph 23.0 mph 0.01 in Fog , Snow Snow
7:19 AM 30.2 °F 18.9 °F 26.6 °F 86% 29.50 in 0.2 mi ESE 16.1 mph 24.2 mph 0.02 in Fog , Snow Heavy Snow
7:31 AM 30.2 °F 19.8 °F 26.6 °F 86% 29.49 in 0.5 mi ESE 13.8 mph 24.2 mph 0.03 in Fog , Snow Snow
7:52 AM 30.9 °F 19.8 °F 27.0 °F 85% 29.51 in 0.5 mi SE 16.1 mph 24.2 mph 0.05 in Fog , Snow Snow
8:08 AM 30.2 °F 20.2 °F 26.6 °F 86% 29.47 in 0.2 mi ESE 12.7 mph 23.0 mph 0.04 in Fog , Snow Snow
8:22 AM 30.2 °F 20.8 °F 26.6 °F 86% 29.46 in 0.2 mi SE 11.5 mph 18.4 mph 0.07 in Fog , Snow Light Snow
8:29 AM 32.0 °F 23.6 °F 26.6 °F 80% 29.46 in 0.8 mi SE 10.4 mph - 0.07 in Snow Light Snow
8:38 AM 33.8 °F 25.8 °F 26.6 °F 75% 29.45 in 0.8 mi SE 10.4 mph 19.6 mph 0.07 in Snow Light Snow
8:47 AM 32.0 °F 23.0 °F 26.6 °F 80% 29.45 in 0.8 mi SE 11.5 mph 19.6 mph 0.08 in Snow Light Snow
8:52 AM 32.0 °F 23.6 °F 27.0 °F 82% 29.47 in 0.5 mi SE 10.4 mph 19.6 mph 0.08 in Snow Snow
9:20 AM 33.8 °F 25.8 °F 26.6 °F 75% 29.46 in 1.5 mi ESE 10.4 mph 21.9 mph 0.02 in Snow Light Snow
9:29 AM 33.8 °F 24.8 °F 24.8 °F 70% 29.45 in 2.0 mi SE 12.7 mph 20.7 mph 0.02 in Snow Light Snow
9:44 AM 33.8 °F - 26.6 °F 75% 29.45 in 1.2 mi Calm Calm - 0.04 in Snow Light Snow
9:52 AM 33.1 °F 26.9 °F 26.1 °F 75% 29.48 in 1.0 mi Variable 6.9 mph 19.6 mph 0.04 in Snow Light Snow
10:04 AM 33.8 °F 26.4 °F 26.6 °F 75% 29.45 in 0.8 mi East 9.2 mph 16.1 mph 0.01 in Snow Light Snow
10:17 AM 33.8 °F 27.7 °F 26.6 °F 75% 29.45 in 1.0 mi Variable 6.9 mph - 0.01 in Snow Light Snow
10:35 AM 33.8 °F 30.8 °F 28.4 °F 81% 29.46 in 1.8 mi Variable 3.5 mph - 0.02 in Snow Light Snow
10:52 AM 33.1 °F 26.9 °F 28.9 °F 85% 29.48 in 1.0 mi NW 6.9 mph - 0.02 in Snow Light Snow
11:00 AM 32.0 °F 24.2 °F 28.4 °F 87% 29.45 in 0.5 mi NNW 9.2 mph - 0.00 in Fog , Snow Snow
11:16 AM 30.2 °F 20.8 °F 26.6 °F 86% 29.45 in 0.2 mi NW 11.5 mph 19.6 mph 0.01 in Fog , Snow Snow
11:43 AM 28.4 °F 20.4 °F 24.8 °F 86% 29.46 in 0.2 mi NW 8.1 mph 19.6 mph 0.04 in Fog , Snow Snow
11:52 AM 28.0 °F 19.3 °F 24.1 °F 85% 29.49 in 0.2 mi NW 9.2 mph 19.6 mph 0.06 in Fog , Snow Snow
12:49 PM 26.6 °F 19.1 °F 23.0 °F 86% 29.47 in 0.5 mi Variable 6.9 mph 17.3 mph 0.07 in Fog , Snow Light Snow
12:52 PM 27.0 °F 18.7 °F 23.0 °F 85% 29.50 in 0.5 mi NW 8.1 mph 17.3 mph 0.07 in Fog , Snow Light Snow
1:02 PM 26.6 °F 19.1 °F 23.0 °F 86% 29.48 in 0.5 mi Variable 6.9 mph 17.3 mph 0.00 in Fog , Snow Light Snow
1:19 PM 26.6 °F 18.2 °F 21.2 °F 80% 29.48 in 0.8 mi WNW 8.1 mph - 0.00 in Snow Light Snow
1:30 PM 26.6 °F 17.5 °F 21.2 °F 80% 29.49 in 1.0 mi WNW 9.2 mph 18.4 mph 0.00 in Snow Light Snow
1:52 PM 27.0 °F 18.0 °F 21.9 °F 81% 29.53 in 0.8 mi West 9.2 mph - 0.00 in Snow Light Snow
2:00 PM 26.6 °F 18.2 °F 21.2 °F 80% 29.50 in 0.8 mi WNW 8.1 mph 19.6 mph 0.00 in Snow Light Snow
2:52 PM 26.1 °F 15.0 °F 21.9 °F 84% 29.55 in 0.5 mi WNW 12.7 mph 19.6 mph 0.01 in Fog , Snow Light Snow
3:52 PM 26.1 °F 15.6 °F 21.9 °F 84% 29.57 in 0.5 mi West 11.5 mph 19.6 mph 0.01 in Fog , Snow Light Snow
4:18 PM 26.6 °F 16.8 °F 21.2 °F 80% 29.56 in 0.8 mi West 10.4 mph 19.6 mph 0.00 in Snow Light Snow
4:44 PM 26.6 °F 16.2 °F 21.2 °F 80% 29.57 in 1.5 mi West 11.5 mph 18.4 mph 0.00 in Snow Light Snow
4:52 PM 26.1 °F 16.2 °F 21.0 °F 81% 29.60 in 1.5 mi West 10.4 mph 19.6 mph 0.00 in Snow Light Snow
5:01 PM 26.6 °F 17.5 °F 21.2 °F 80% 29.58 in 1.2 mi West 9.2 mph - 0.00 in Snow Light Snow
5:08 PM 26.6 °F 17.5 °F 21.2 °F 80% 29.58 in 1.2 mi West 9.2 mph - 0.00 in Snow Light Snow
5:19 PM 26.6 °F 16.8 °F 21.2 °F 80% 29.59 in 1.5 mi West 10.4 mph - 0.00 in Snow Light Snow
5:37 PM 26.6 °F 17.5 °F 19.4 °F 74% 29.60 in 2.5 mi West 9.2 mph 17.3 mph 0.00 in Snow Light Snow
5:44 PM 26.6 °F 16.8 °F 19.4 °F 74% 29.60 in 3.0 mi West 10.4 mph 17.3 mph 0.00 in Snow Light Snow
5:52 PM 26.1 °F 15.6 °F 19.9 °F 78% 29.63 in 4.0 mi West 11.5 mph 17.3 mph 0.00 in Snow Light Snow
6:08 PM 26.6 °F 16.8 °F 19.4 °F 74% 29.61 in 10.0 mi West 10.4 mph 18.4 mph 0.00 in   Overcast
6:52 PM 26.1 °F 15.6 °F 18.0 °F 71% 29.65 in 10.0 mi West 11.5 mph 19.6 mph 0.00 in   Overcast
7:52 PM 26.1 °F 16.8 °F 18.0 °F 71% 29.69 in 10.0 mi WNW 9.2 mph 17.3 mph N/A   Overcast
8:52 PM 25.0 °F 16.3 °F 19.9 °F 81% 29.72 in 5.0 mi West 8.1 mph - N/A   Haze
9:30 PM 24.8 °F 16.9 °F 21.2 °F 86% 29.71 in 5.0 mi WNW 6.9 mph - N/A   Overcast
9:52 PM 24.1 °F 16.0 °F 19.9 °F 84% 29.75 in 5.0 mi West 6.9 mph - N/A   Overcast
10:00 PM 24.8 °F 14.0 °F 19.4 °F 80% 29.72 in 7.0 mi West 11.5 mph 16.1 mph N/A   Overcast
10:10 PM 24.8 °F 14.0 °F 19.4 °F 80% 29.72 in 9.0 mi West 11.5 mph - N/A   Overcast
10:18 PM 24.8 °F 14.0 °F 19.4 °F 80% 29.73 in 9.0 mi West 11.5 mph - N/A   Overcast
10:52 PM 24.1 °F 12.0 °F 19.0 °F 81% 29.77 in 7.0 mi West 13.8 mph - N/A   Overcast
11:52 PM 24.1 °F 12.5 °F 18.0 °F 77% 29.78 in 9.0 mi West 12.7 mph - N/A   Overcast